Location: Unspecified
(0.0000°N, 0.0000°E)
Time: 00:58:24
(UTC+00:00)

Explorer 11/Cluster Stage 4 - All Passes

Search period start: 26 May 2019 00:00
Search period end: 05 June 2019 00:00
Orbit: 467 x 1260 km, 28.8° (Epoch: 25 May)

Date Brightness Start Highest point End Pass type
(mag) Time Alt. Az. Time Alt. Az. Time Alt. Az.
26 May - 08:36:19 10° NNW 08:38:59 19° NNE 08:41:46 10° ENE daylight
26 May - 10:23:27 10° WNW 10:27:07 49° SSW 10:31:25 10° SE daylight
26 May - 12:14:56 10° SW 12:16:08 11° SSW 12:17:23 10° S daylight
26 May - 19:32:49 10° SSW 19:39:32 28° SSE 19:46:15 10° E visible
26 May - 21:20:58 10° SW 21:29:18 80° SSE 21:36:56 10° ENE visible
26 May - 23:11:39 10° W 23:18:38 33° NNW 23:24:47 10° NNE night (unlit)
27 May - 08:25:32 10° NNW 08:28:34 25° NNE 08:31:41 10° E daylight
27 May - 10:13:16 10° W 10:16:43 35° SSW 10:20:38 10° SE daylight
27 May - 17:36:59 10° S 17:38:37 11° SSE 17:40:18 10° SE daylight
27 May - 19:21:51 10° SSW 19:28:51 32° SSE 19:35:58 10° E visible
27 May - 21:10:11 10° WSW 21:18:32 89° NNW 21:26:20 10° ENE visible
27 May - 23:01:12 10° W 23:07:56 29° NNW 23:13:59 10° NNE night (unlit)
28 May - 08:14:50 10° NW 08:18:09 33° NNE 08:21:30 10° E daylight
28 May - 10:03:12 10° W 10:06:20 26° SSW 10:09:47 10° SSE daylight
28 May - 17:25:23 10° S 17:28:08 12° SSE 17:30:58 10° SE daylight
28 May - 19:10:56 10° SW 19:18:08 37° SSE 19:25:35 10° E visible
28 May - 20:59:27 10° WSW 21:07:44 77° NNW 21:15:40 10° NE visible
28 May - 22:50:50 10° W 22:57:15 25° NNW 23:03:09 10° NNE night (unlit)
29 May - 08:04:11 10° NW 08:07:44 46° NNE 08:11:14 10° ESE daylight
29 May - 09:53:14 10° WSW 09:55:57 19° SSW 09:58:50 10° SSE daylight
29 May - 17:14:09 10° S 17:17:35 14° SSE 17:21:14 10° SE daylight
29 May - 19:00:06 10° SW 19:07:24 43° SSE 19:15:06 10° E visible
29 May - 20:48:48 10° WSW 20:56:57 67° NNW 21:04:55 10° NE visible
29 May - 22:40:34 10° WNW 22:46:36 22° NNW 22:52:14 10° NNE night (unlit)
30 May - 07:53:36 10° NW 07:57:19 66° NNE 08:00:54 10° ESE daylight
30 May - 09:43:28 10° WSW 09:45:34 15° SSW 09:47:44 10° S daylight
30 May - 17:03:05 10° S 17:07:03 15° SSE 17:11:18 10° ESE daylight
30 May - 18:49:18 10° SW 18:56:38 49° SSE 19:04:34 10° ENE visible
30 May - 20:38:12 10° WSW 20:46:10 58° NNW 20:54:08 10° NE visible
30 May - 22:30:23 10° WNW 22:35:58 20° NNW 22:41:17 10° NNE visible
31 May - 05:56:12 10° N 05:58:25 14° NNE 06:00:29 10° NE daylight
31 May - 07:43:03 10° WNW 07:46:55 88° SSW 07:50:31 10° ESE daylight
31 May - 09:34:11 10° SW 09:35:11 11° SSW 09:36:12 10° S daylight
31 May - 16:52:06 10° S 16:56:28 17° SSE 17:01:13 10° ESE daylight
31 May - 18:38:34 10° SW 18:45:52 57° SSE 18:53:56 10° ENE visible
31 May - 20:27:41 10° WSW 20:35:24 50° NNW 20:43:16 10° NE visible
31 May - 22:20:19 10° WNW 22:25:21 17° NNW 22:30:13 10° NNE visible
01 Jun - 05:44:53 10° NNW 05:48:03 18° NNE 05:50:53 10° ENE daylight
01 Jun - 07:32:33 10° WNW 07:36:29 63° SSW 07:40:05 10° SE daylight
01 Jun - 16:41:12 10° SSW 16:45:51 20° SSE 16:51:02 10° ESE daylight
01 Jun - 18:27:54 10° SW 18:35:06 66° SSE 18:43:15 10° ENE visible
01 Jun - 20:17:15 10° W 20:24:40 43° NNW 20:32:22 10° NE visible
01 Jun - 22:10:24 10° NW 22:14:47 15° NNW 22:19:05 10° N visible
02 Jun - 05:33:46 10° NNW 05:37:41 24° NNE 05:41:02 10° E visible
02 Jun - 07:22:06 10° WNW 07:26:03 46° SSW 07:29:35 10° SE daylight
02 Jun - 16:30:23 10° SSW 16:35:13 22° SSE 16:40:45 10° E daylight
02 Jun - 18:17:17 10° SW 18:24:21 77° SSE 18:32:30 10° ENE visible
02 Jun - 20:06:54 10° W 20:13:57 36° NNW 20:21:23 10° NE visible
02 Jun - 22:00:38 10° NW 22:04:15 13° NNW 22:07:49 10° N visible
03 Jun - 05:22:45 10° NW 05:27:16 32° NNE 05:31:03 10° E visible
03 Jun - 07:11:42 10° W 07:15:36 34° SSW 07:19:03 10° SE daylight
03 Jun - 16:19:36 10° SSW 16:24:35 25° SSE 16:30:22 10° E daylight
03 Jun - 18:06:45 10° WSW 18:13:36 89° SSE 18:21:42 10° ENE visible
03 Jun - 19:56:39 10° W 20:03:16 31° NNW 20:10:22 10° NNE visible
03 Jun - 21:51:11 10° NW 21:53:45 12° NNW 21:56:19 10° N visible
04 Jun - 03:25:11 10° N 03:27:27 12° NNE 03:29:35 10° NE visible
04 Jun - 05:11:49 10° NW 05:16:50 43° NNE 05:20:56 10° E visible
04 Jun - 07:01:22 10° W 07:05:07 27° SSW 07:08:26 10° SSE daylight
04 Jun - 16:08:53 10° SSW 16:13:57 29° SSE 16:19:56 10° E daylight
04 Jun - 17:56:16 10° WSW 18:02:54 78° NNW 18:10:50 10° NE daylight
04 Jun - 19:46:29 10° W 19:52:38 27° NNW 19:59:16 10° NNE visible
04 Jun - 21:42:48 10° NNW 21:43:17 10° NNW 21:43:48 10° NNW visible
